Home > Weather > El Monte > Past weeks

Flag for U.S.A. Weather for the Past 2 Weeks in El Monte, California, U.S.A.

Now
88 °F

Sunny.


Feels Like: 84 °F
Forecast: 55 / 87 °F
Wind: 16 mph from East

Location: Fullerton Municipal Airport

Current Time: Feb 8, 2016 at 4:10:50 PM

Latest Report: Feb 8, 2016 at 2:53 PM


Visibility: 10 mi

Pressure: 30.06 "Hg

Humidity: 9%

Dew point: 23 °F

Location of El MonteLocation

Historic Weather in El Monte — Graph

°F

El Monte Temperature Yesterday

Maximum temperature yesterday: 89 °F (at 2:53 PM)
Minimum temperature yesterday: 49 °F (at 5:53 AM)
Average temperature yesterday: 68 °F

High & Low Weather Summary for the Past Weeks

 TemperatureHumidityPressure
High89 °F (Feb 7, 2:53 PM)90% (Jan 31, 1:02 AM)30.35 "Hg (Jan 31, 1:02 AM)
Low36 °F (Feb 2, 5:53 AM)8% (Feb 7, 2:53 PM)29.61 "Hg (Jan 31, 2:00 PM)
Average59 °F47%30.12 "Hg
* Reported Jan 24 1:53 PM — Feb 8 1:53 PM, El Monte, Weather by CustomWeather, © 2016

Note: Actual official high and low records may vary slightly from our data, if they occured in-between our weather recording intervals... More about our weather records

Advertising

El Monte Weather History for the Previous 24 Hours

 ConditionsComfort  
Time TempWeatherWind HumidityBarometerVisibility
1:53 PM
Mon, Feb 8
88 °FSunny.15 mph10%30.07 "Hg10 mi
12:53 PM87 °FSunny.20 mph9%30.08 "Hg10 mi
11:53 AM87 °FSunny.23 mph9%30.10 "Hg10 mi
10:53 AM85 °FSunny.23 mph9%30.12 "Hg10 mi
9:53 AM82 °FSunny.21 mph11%30.12 "Hg10 mi
8:53 AM80 °FSunny.14 mph11%30.12 "Hg10 mi
7:53 AM67 °FSunny.No wind29%30.12 "Hg10 mi
6:53 AM67 °FSunny.3 mph20%30.10 "Hg10 mi
5:53 AM63 °FClear.5 mph25%30.09 "Hg10 mi
4:53 AM57 °FClear.3 mph36%30.09 "Hg10 mi
3:53 AM55 °FClear.3 mph42%30.09 "Hg10 mi
2:53 AM57 °FClear.5 mph39%30.09 "Hg10 mi
1:53 AM58 °FClear.5 mph38%30.10 "Hg10 mi
12:53 AM58 °FClear.No wind38%30.11 "Hg10 mi
11:53 PM
Sun, Feb 7
61 °FClear.No wind31%30.11 "Hg10 mi
10:53 PM63 °FClear.No wind24%30.11 "Hg10 mi
9:53 PM70 °FClear.5 mph16%30.10 "Hg10 mi
8:53 PM65 °FClear.No wind28%30.09 "Hg10 mi
7:53 PM69 °FClear.3 mph21%30.09 "Hg10 mi
6:53 PM74 °FClear.3 mph16%30.08 "Hg10 mi
5:53 PM76 °FClear.No wind16%30.07 "Hg10 mi
4:53 PM83 °FSunny.6 mph12%30.05 "Hg10 mi
Weather by CustomWeather, © 2016

See weather overviewHow to use our weather pages